This demonstration page uses our WeatherBlox Daily Observations layout. Learn more.

Left ArrowRight Arrow

44.89941, -97.11507

Hourly Observations for November 14, 2019

Temp ( °F °C ) Dew Point ( °F °C ) Humidity (%) Winds ( mph kmh ) Pressure ( in mb ) Visibility ( mi km ) Precip ( " mm )
12:53 am 00:53 Clear 13 -10.6 10 -12.2 88 88 NNW 5 7 30.21 1023 10 16 0.00 0.00
1:48 am 01:48 Mostly Cloudy 14 -10 10 -12 85 85 NW 3 6 30.31 1026 10 16 0.00 0.00
1:53 am 01:53 Mostly Cloudy 14 -10 11 -11.7 88 88 NW 5 7 30.23 1024 10 16 0.00 0.00
2:28 am 02:28 Partly Cloudy 14 -10 11 -11.7 88 88 NW 7 11 30.32 1027 10 16 0.00 0.00
2:53 am 02:53 Clear 13 -10.6 11 -11.7 92 92 WNW 6 9 30.24 1024 10 16 0.00 0.00
3:53 am 03:53 Clear 12 -11.1 10 -12.2 92 92 WNW 5 7 30.25 1025 10 16 0.00 0.00
4:53 am 04:53 Clear 10 -12.2 8 -13.3 92 92 W 5 7 30.27 1025 10 16 0.00 0.00
5:53 am 05:53 Clear 11 -11.7 9 -12.8 92 92 W 5 7 30.29 1026 10 16 0.00 0.00
6:53 am 06:53 Clear 9 -12.8 6 -14.4 88 88 WSW 3 6 30.29 1026 10 16 0.00 0.00
7:53 am 07:53 Sunny 9 -12.8 6 -14.4 88 88 WSW 6 9 30.29 1026 10 16 0.00 0.00
8:53 am 08:53 Sunny 17 -8.3 13 -10.6 84 84 SW 6 9 30.30 1026 10 16 0.00 0.00
9:53 am 09:53 Sunny 22 -5.6 18 -7.8 85 85 SW 7 11 30.28 1026 10 16 0.00 0.00
10:53 am 10:53 Sunny 29 -1.7 20 -6.7 69 69 WSW 13 20 30.29 1026 10 16 0.00 0.00
11:53 am 11:53 Cloudy 33 0.6 22 -5.6 64 64 SW 12 19 30.28 1025 10 16 0.00 0.00
12:53 pm 12:53 Cloudy 36 2.2 26 -3.3 67 67 SW 13 20 30.25 1025 10 16 0.00 0.00
1:53 pm 13:53 Cloudy 38 3.3 28 -2.2 68 68 WSW 15 24 30.24 1024 10 16 0.00 0.00
2:53 pm 14:53 Mostly Cloudy 40 4.4 31 -0.6 70 70 SW 13 20 30.22 1024 10 16 0.00 0.00
3:53 pm 15:53 Sunny 40 4.4 32 0 73 73 SW 13 20 30.22 1023 10 16 0.00 0.00
4:53 pm 16:53 Sunny 37 2.8 32 0 82 82 SW 10 17 30.22 1024 10 16 0.00 0.00
5:53 pm 17:53 Clear 33 0.6 30 -1.1 89 89 S 9 15 30.23 1024 10 16 0.00 0.00
6:53 pm 18:53 Clear 30 -1.1 28 -2.2 92 92 SSW 9 15 30.24 1024 10 16 0.00 0.00
7:53 pm 19:53 Clear 37 2.8 33 0.6 86 86 WSW 10 17 30.24 1024 10 16 0.00 0.00
8:53 pm 20:53 Clear 34 1.1 31 -0.6 89 89 SSW 6 9 30.24 1024 10 16 0.00 0.00
9:53 pm 21:53 Clear 31 -0.6 29 -1.7 92 92 SW 7 11 30.26 1025 10 16 0.00 0.00
10:53 pm 22:53 Clear 29 -1.7 28 -2.2 96 96 Calm 30.25 1025 10 16 0.00 0.00
11:53 pm 23:53 Clear 27 -2.8 26 -3.3 96 96 Calm 30.26 1025 10 16 0.00 0.00

Powered by AerisWeather